KQ4KX Weather Reports


time (UTC)temp
C
wind
direction
speed
KPH
gust
KPH
rain 1hr
cm
rain 24hr
cm
rain mn
cm
humidity
%
barometer
mb
20200531081735 21 0 0.0 0.0 0.00 0.00 0.00 89 1014.8
20200531081235 21 0 0.0 0.0 0.00 0.00 0.00 89 1014.8
20200531080705 21 0 0.0 0.0 0.00 0.00 0.00 89 1014.8
20200531080255 21 0 0.0 0.0 0.00 0.00 0.00 89 1014.8
20200531080135 21 0 0.0 0.0 0.00 0.00 0.00 89 1014.8
20200531075708 21 0 0.0 0.0 0.00 0.00 0.00 89 1014.9
20200531075605 21 0 0.0 0.0 0.00 0.00 0.00 89 1014.9
20200531075035 21 0 0.0 0.0 0.00 0.00 0.00 89 1014.9
20200531074505 21 0 0.0 0.0 0.00 0.00 0.00 89 1014.9
20200531074005 21 0 0.0 0.0 0.00 0.00 0.00 89 1014.9
20200531073435 21 0 0.0 0.0 0.00 0.00 0.00 89 1015.0
20200531072935 21 0 0.0 0.0 0.00 0.00 0.00 89 1015.1
20200531072405 21 0 0.0 0.0 0.00 0.00 0.00 89 1015.2
20200531071835 21 0 0.0 0.0 0.00 0.00 0.00 89 1015.1
20200531071353 21 0 0.0 0.0 0.00 0.00 0.00 89 1015.2
20200531071305 21 0 0.0 0.0 0.00 0.00 0.00 89 1015.2
20200531070805 21 0 0.0 0.0 0.00 0.00 0.00 89 1015.2
20200531070317 21 0 0.0 0.0 0.00 0.00 0.00 89 1015.2
20200531070235 21 0 0.0 0.0 0.00 0.00 0.00 89 1015.2
20200531070058 21 0 0.0 0.0 0.00 0.00 0.00 89 1015.3
20200531065705 21 0 0.0 0.0 0.00 0.00 0.00 89 1015.3
20200531065205 21 0 0.0 0.0 0.00 0.00 0.00 89 1015.3
20200531064635 21 0 0.0 0.0 0.00 0.00 0.00 89 1015.3
20200531064135 21 0 0.0 0.0 0.00 0.00 0.00 89 1015.3
20200531063658 21 0 0.0 0.0 0.00 0.00 0.00 89 1015.3
20200531063605 21 0 0.0 0.0 0.00 0.00 0.00 89 1015.3
20200531063132 21 0 0.0 0.0 0.00 0.00 0.00 89 1015.3
20200531063035 21 0 0.0 0.0 0.00 0.00 0.00 89 1015.3
20200531062535 21 219 0.0 3.2 0.00 0.00 0.00 89 1015.4
20200531062035 21 219 1.6 3.2 0.00 0.00 0.00 89 1015.5
20200531061505 21 218 0.0 3.2 0.00 0.00 0.00 89 1015.4
20200531061005 21 219 0.0 3.2 0.00 0.00 0.00 89 1015.6
20200531060505 21 219 1.6 4.8 0.00 0.00 0.00 89 1015.6
20200531055935 21 219 3.2 4.8 0.00 0.00 0.00 89 1015.6
20200531055435 21 219 3.2 4.8 0.00 0.00 0.00 89 1015.7
20200531054905 21 219 3.2 4.8 0.00 0.00 0.00 89 1015.7
20200531054729 21 219 3.2 4.8 0.00 0.00 0.00 89 1015.8
20200531054335 21 219 3.2 4.8 0.00 0.00 0.00 89 1015.8
20200531053835 22 219 3.2 6.4 0.00 0.00 0.00 89 1015.9
20200531053305 22 218 3.2 6.4 0.00 0.00 0.00 89 1015.9
20200531052846 22 218 1.6 4.8 0.00 0.00 0.00 89 1016.0
20200531052805 22 218 1.6 4.8 0.00 0.00 0.00 89 1016.0
20200531052347 22 219 1.6 6.4 0.00 0.00 0.00 89 1016.2
20200531052305 22 219 1.6 6.4 0.00 0.00 0.00 89 1016.2
20200531051736 22 223 3.2 6.4 0.00 0.00 0.00 89 1016.2
20200531051205 22 226 3.2 6.4 0.00 0.00 0.00 89 1016.3
20200531050705 22 226 3.2 6.4 0.00 0.00 0.00 89 1016.4
20200531050232 22 209 3.2 6.4 0.00 0.00 0.00 89 1016.5
20200531050135 22 209 3.2 6.4 0.00 0.00 0.00 89 1016.5
20200531045605 22 178 1.6 6.4 0.00 0.00 0.00 89 1016.5
20200531045145 22 159 1.6 6.4 0.00 0.00 0.00 89 1016.5
20200531045105 22 159 1.6 6.4 0.00 0.00 0.00 89 1016.5
20200531044605 22 159 1.6 6.4 0.00 0.00 0.00 88 1016.4
20200531044105 22 159 1.6 6.4 0.00 0.00 0.00 89 1016.5
20200531043535 22 159 0.0 3.2 0.00 0.00 0.00 89 1016.4
20200531043005 22 150 1.6 8.0 0.00 0.00 0.00 89 1016.4
20200531042505 22 143 3.2 8.0 0.00 0.00 0.00 89 1016.4
20200531041935 22 135 3.2 6.4 0.00 0.00 0.00 89 1016.4
20200531041435 22 125 1.6 6.4 0.00 0.00 0.00 88 1016.5
20200531040935 22 125 1.6 6.4 0.00 0.00 0.00 88 1016.5
20200531040435 22 127 1.6 6.4 0.00 0.00 0.00 88 1016.6
20200531035905 22 115 3.2 12.9 0.00 0.00 0.00 88 1016.6
20200531035335 22 110 3.2 12.9 0.00 0.00 0.00 88 1016.7
20200531034805 22 91 3.2 9.7 0.00 0.00 0.00 88 1016.7
20200531034235 22 84 3.2 9.7 0.00 0.00 0.00 88 1016.8
20200531033705 22 88 3.2 14.5 0.00 0.00 0.00 87 1016.9
20200531033205 22 92 3.2 14.5 0.00 0.00 0.00 87 1016.9
20200531032635 22 97 3.2 12.9 0.00 0.00 0.00 87 1017.0
20200531032105 22 123 3.2 9.7 0.00 0.00 0.00 86 1017.1
20200531031535 22 146 4.8 12.9 0.00 0.00 0.00 85 1017.0
20200531031035 22 151 4.8 14.5 0.00 0.00 0.00 85 1017.1
20200531030505 22 137 3.2 14.5 0.00 0.00 0.00 86 1017.0
20200531030006 22 131 3.2 11.3 0.00 0.00 0.00 86 1016.9
20200531025435 22 138 3.2 11.3 0.00 0.00 0.00 87 1016.9
20200531024905 22 135 3.2 9.7 0.00 0.00 0.00 87 1016.9
20200531024335 22 102 1.6 8.0 0.00 0.00 0.00 88 1016.8
20200531023835 22 130 3.2 11.3 0.00 0.00 0.00 88 1016.9
20200531023305 22 144 3.2 11.3 0.00 0.00 0.00 88 1016.9
20200531022805 22 110 4.8 11.3 0.00 0.00 0.00 88 1016.9
20200531022305 22 85 8.0 16.1 0.00 0.00 0.00 89 1016.9
20200531021735 22 84 12.9 22.5 0.00 0.00 0.00 89 1016.9
20200531021419 22 83 16.1 25.7 0.00 0.00 0.00 89 1017.1
20200531021205 22 83 16.1 25.7 0.00 0.00 0.00 89 1017.1
20200531020635 22 83 17.7 25.7 0.00 0.00 0.00 88 1017.0
20200531020225 22 83 19.3 32.2 0.00 0.00 0.00 88 1017.1
20200531020105 22 83 19.3 32.2 0.00 0.00 0.00 88 1017.1
20200531015535 22 82 22.5 35.4 0.00 0.00 0.00 88 1017.1
20200531015050 22 79 25.7 37.0 0.00 0.00 0.00 88 1017.1
20200531015005 22 79 25.7 37.0 0.00 0.00 0.00 88 1017.1
20200531014509 23 78 27.4 37.0 0.00 0.00 0.00 88 1017.2
20200531014435 23 78 27.4 37.0 0.00 0.00 0.00 88 1017.2
20200531013935 23 78 29.0 40.2 0.00 0.00 0.00 88 1017.4
20200531013405 23 75 29.0 46.7 0.00 0.00 0.00 88 1017.3
20200531012835 23 65 22.5 46.7 0.00 0.00 0.00 87 1017.0
20200531012305 24 58 14.5 29.0 0.00 0.00 0.00 88 1016.9
20200531012303 25 108 1.6 11.3 0.00 0.00 0.00 85 1015.8
20200531011805 25 62 4.8 16.1 0.00 0.00 0.00 87 1016.8
20200531011235 25 72 1.6 4.8 0.00 0.00 0.00 87 1016.2
20200531010706 25 78 4.8 12.9 0.00 0.00 0.00 87 1016.2
20200531010309 25 79 3.2 12.9 0.00 0.00 0.00 86 1016.0
20200531010135 25 79 3.2 12.9 0.00 0.00 0.00 86 1016.0
20200531005701 25 108 1.6 11.3 0.00 0.00 0.00 85 1015.8
20200531005605 25 108 1.6 11.3 0.00 0.00 0.00 85 1015.8
20200531005206 25 225 1.6 3.2 0.00 0.00 0.00 85 1015.6
20200531005105 25 225 1.6 3.2 0.00 0.00 0.00 85 1015.6
20200531004535 25 225 1.6 6.4 0.00 0.00 0.00 85 1015.6
20200531004005 25 213 3.2 6.4 0.00 0.00 0.00 84 1015.5
20200531003435 25 212 4.8 9.7 0.00 0.00 0.00 84 1015.4
20200531002935 25 192 6.4 16.1 0.00 0.00 0.00 85 1015.4
20200531002514 25 161 8.0 16.1 0.00 0.00 0.00 86 1015.2
20200531002435 25 161 8.0 16.1 0.00 0.00 0.00 86 1015.2
20200531001905 25 148 6.4 14.5 0.00 0.00 0.00 87 1015.1
20200531001335 25 141 3.2 9.7 0.00 0.00 0.00 86 1015.1
20200531000835 26 107 6.4 16.1 0.00 0.00 0.00 85 1015.1
20200531000305 26 82 14.5 27.4 0.00 0.00 0.00 86 1015.1
20200530235858 26 82 16.1 27.4 0.00 0.00 0.00 85 1015.1
20200530235805 26 82 16.1 27.4 0.00 0.00 0.00 85 1015.1
20200530235235 26 72 12.9 29.0 0.00 0.00 0.00 85 1015.1
20200530234748 26 67 9.7 27.4 0.00 0.00 0.00 86 1015.2
20200530234706 26 67 9.7 27.4 0.00 0.00 0.00 86 1015.2
20200530234259 26 84 4.8 12.9 0.00 0.00 0.00 84 1015.3
20200530234135 26 84 4.8 12.9 0.00 0.00 0.00 84 1015.3
20200530233605 26 142 3.2 9.7 0.00 0.00 0.00 83 1015.1
20200530233035 26 166 6.4 17.7 0.00 0.00 0.00 81 1014.6
20200530232735 27 166 8.0 19.3 0.00 0.00 0.00 80 1014.3
20200530232505 27 166 8.0 19.3 0.00 0.00 0.00 80 1014.3
20200530232139 27 166 8.0 19.3 0.00 0.00 0.00 79 1014.1
20200530231935 27 166 8.0 19.3 0.00 0.00 0.00 79 1014.1
20200530231405 27 157 8.0 20.9 0.00 0.00 0.00 78 1013.8
20200530230905 27 154 9.7 24.1 0.00 0.00 0.00 78 1013.8
20200530230335 28 154 11.3 24.1 0.00 0.00 0.00 78 1014.0
20200530225909 28 161 11.3 22.5 0.00 0.00 0.00 77 1013.8
20200530225835 28 161 11.3 22.5 0.00 0.00 0.00 77 1013.8
20200530225305 29 178 9.7 22.5 0.00 0.00 0.00 75 1013.8
20200530224735 30 179 6.4 22.5 0.00 0.00 0.00 70 1013.6
20200530224205 31 167 4.8 16.1 0.00 0.00 0.00 68 1013.4
20200530223635 31 119 6.4 19.3 0.00 0.00 0.00 68 1013.1
20200530223216 32 84 6.4 19.3 0.00 0.00 0.00 67 1012.9
20200530223135 32 84 6.4 19.3 0.00 0.00 0.00 67 1012.9
20200530222723 32 41 3.2 8.0 0.00 0.00 0.00 64 1012.9
20200530222635 32 41 3.2 8.0 0.00 0.00 0.00 64 1012.9
20200530222105 32 40 3.2 8.0 0.00 0.00 0.00 64 1012.8
20200530221535 32 41 3.2 6.4 0.00 0.00 0.00 65 1013.0
20200530221035 32 43 1.6 6.4 0.00 0.00 0.00 65 1013.0
20200530220505 32 41 1.6 4.8 0.00 0.00 0.00 66 1013.0
20200530220005 32 43 3.2 6.4 0.00 0.00 0.00 65 1013.0
20200530215522 32 48 1.6 6.4 0.00 0.00 0.00 65 1013.2
20200530215435 32 48 1.6 6.4 0.00 0.00 0.00 65 1013.2
20200530215014 32 30 1.6 6.4 0.00 0.00 0.00 64 1013.2
20200530214935 32 30 1.6 6.4 0.00 0.00 0.00 64 1013.2
20200530214451 32 10 1.6 6.4 0.00 0.00 0.00 66 1013.2
20200530214405 32 10 1.6 6.4 0.00 0.00 0.00 66 1013.2
20200530213905 32 24 3.2 6.4 0.00 0.00 0.00 65 1013.2
20200530213335 32 33 3.2 8.0 0.00 0.00 0.00 65 1013.2
20200530212835 32 26 1.6 8.0 0.00 0.00 0.00 65 1013.2
20200530212305 32 4 1.6 6.4 0.00 0.00 0.00 65 1013.3
20200530211841 32 31 1.6 6.4 0.00 0.00 0.00 65 1013.4
20200530211735 32 31 1.6 6.4 0.00 0.00 0.00 65 1013.4
20200530211205 32 50 4.8 12.9 0.00 0.00 0.00 63 1013.4
20200530210636 32 50 4.8 12.9 0.00 0.00 0.00 62 1013.4
20200530210233 32 44 4.8 8.0 0.00 0.00 0.00 64 1013.4
20200530210135 32 44 4.8 8.0 0.00 0.00 0.00 64 1013.4
20200530205656 32 48 4.8 9.7 0.00 0.00 0.00 64 1013.4
20200530205606 32 48 4.8 9.7 0.00 0.00 0.00 64 1013.4
20200530205036 32 52 3.2 9.7 0.00 0.00 0.00 62 1013.6
20200530204535 32 51 1.6 4.8 0.00 0.00 0.00 63 1013.7
20200530204006 33 44 1.6 4.8 0.00 0.00 0.00 63 1013.7
20200530203558 33 32 3.2 4.8 0.00 0.00 0.00 63 1013.9
20200530203505 33 32 3.2 4.8 0.00 0.00 0.00 63 1013.9
20200530203015 32 355 3.2 4.8 0.00 0.00 0.00 63 1013.8
20200530202936 32 355 3.2 4.8 0.00 0.00 0.00 63 1013.8
20200530202436 32 330 3.2 9.7 0.00 0.00 0.00 63 1013.9
20200530202003 32 333 3.2 9.7 0.00 0.00 0.00 62 1013.9
20200530201906 32 333 3.2 9.7 0.00 0.00 0.00 62 1013.9
20200530201553 33 62 1.6 4.8 0.00 0.00 0.00 63 1014.2
20200530201406 33 345 1.6 6.4 0.00 0.00 0.00 62 1013.9
20200530200836 33 359 0.0 4.8 0.00 0.00 0.00 62 1014.0
20200530200336 33 12 0.0 4.8 0.00 0.00 0.00 61 1014.0
20200530195836 33 62 1.6 4.8 0.00 0.00 0.00 63 1014.1
20200530195306 33 62 1.6 4.8 0.00 0.00 0.00 63 1014.2
20200530195243 33 43 1.6 8.0 0.00 0.00 0.00 62 1014.5
20200530194736 33 63 1.6 4.8 0.00 0.00 0.00 63 1014.2
20200530194236 33 67 1.6 6.4 0.00 0.00 0.00 62 1014.3
20200530193706 33 58 1.6 6.4 0.00 0.00 0.00 61 1014.3
20200530193136 33 320 1.6 8.0 0.00 0.00 0.00 61 1014.3
20200530192654 33 296 1.6 8.0 0.00 0.00 0.00 63 1014.4
20200530192606 33 296 1.6 8.0 0.00 0.00 0.00 63 1014.4
20200530192219 33 320 1.6 6.4 0.00 0.00 0.00 60 1014.4
20200530192106 33 320 1.6 6.4 0.00 0.00 0.00 60 1014.4
20200530191536 33 148 1.6 6.4 0.00 0.00 0.00 62 1014.4
20200530191006 33 89 1.6 6.4 0.00 0.00 0.00 64 1014.5
20200530190506 33 43 1.6 8.0 0.00 0.00 0.00 62 1014.5
20200530190414 33 1 1.6 6.4 0.00 0.00 0.00 62 1014.7
20200530185936 33 1 1.6 6.4 0.00 0.00 0.00 62 1014.7
20200530185513 33 342 1.6 6.4 0.00 0.00 0.00 62 1014.8
20200530185436 33 342 1.6 6.4 0.00 0.00 0.00 62 1014.8
20200530184907 33 316 1.6 3.2 0.00 0.00 0.00 62 1014.8
20200530184406 33 334 1.6 6.4 0.00 0.00 0.00 61 1014.8
20200530183836 33 338 1.6 6.4 0.00 0.00 0.00 62 1014.9
20200530183306 32 298 1.6 6.4 0.00 0.00 0.00 64 1014.9
20200530182736 32 245 3.2 6.4 0.00 0.00 0.00 64 1015.1
20200530182308 32 236 3.2 8.0 0.00 0.00 0.00 66 1015.1
20200530182206 32 236 3.2 8.0 0.00 0.00 0.00 66 1015.1
20200530181636 31 263 1.6 8.0 0.00 0.00 0.00 68 1015.1
20200530181136 31 262 1.6 4.8 0.00 0.00 0.00 68 1015.3
20200530180651 31 257 1.6 6.4 0.00 0.00 0.00 72 1015.3
20200530180606 31 257 1.6 6.4 0.00 0.00 0.00 72 1015.3
20200530180232 31 251 1.6 6.4 0.00 0.00 0.00 72 1015.4
20200530180106 31 251 1.6 6.4 0.00 0.00 0.00 72 1015.4
20200530175536 31 240 1.6 6.4 0.00 0.00 0.00 71 1015.5
20200530175006 31 232 1.6 6.4 0.00 0.00 0.00 70 1015.5
20200530174506 31 177 1.6 6.4 0.00 0.00 0.00 73 1015.6
20200530174006 31 169 1.6 6.4 0.00 0.00 0.00 72 1015.5
20200530173436 30 132 0.0 4.8 0.00 0.00 0.00 72 1015.6
20200530172906 30 93 0.0 4.8 0.00 0.00 0.00 71 1015.7
20200530172336 30 83 1.6 4.8 0.00 0.00 0.00 70 1015.7
20200530171806 30 78 1.6 4.8 0.00 0.00 0.00 74 1015.8
20200530171354 30 75 3.2 6.4 0.00 0.00 0.00 73 1015.8
20200530171315 30 75 3.2 6.4 0.00 0.00 0.00 73 1015.8
20200530171236 30 75 3.2 6.4 0.00 0.00 0.00 73 1015.8
20200530170736 31 78 4.8 8.0 0.00 0.00 0.00 73 1015.9
20200530170206 31 89 3.2 8.0 0.00 0.00 0.00 73 1015.9
20200530165732 31 109 1.6 6.4 0.00 0.00 0.00 72 1016.0
20200530165636 31 109 1.6 6.4 0.00 0.00 0.00 72 1016.0
20200530165219 31 242 1.6 6.4 0.00 0.00 0.00 75 1016.1
20200530165136 31 242 1.6 6.4 0.00 0.00 0.00 75 1016.1
20200530164700 30 242 1.6 6.4 0.00 0.00 0.00 74 1016.1
20200530164606 30 242 1.6 6.4 0.00 0.00 0.00 74 1016.1
20200530164106 30 242 1.6 4.8 0.00 0.00 0.00 75 1016.2
20200530163536 30 237 3.2 6.4 0.00 0.00 0.00 72 1016.2
20200530163147 31 218 3.2 9.7 0.00 0.00 0.00 73 1016.3
20200530163036 31 234 3.2 6.4 0.00 0.00 0.00 73 1016.2
20200530162544 31 218 3.2 9.7 0.00 0.00 0.00 73 1016.3
20200530162506 31 218 3.2 9.7 0.00 0.00 0.00 73 1016.3
20200530162345 30 183 4.8 16.1 0.00 0.00 0.00 74 1016.6
20200530161936 31 191 3.2 9.7 0.00 0.00 0.00 72 1016.3
20200530161406 31 186 0.0 4.8 0.00 0.00 0.00 72 1016.3
20200530160906 31 207 1.6 6.4 0.00 0.00 0.00 72 1016.3
20200530160406 30 220 1.6 6.4 0.00 0.00 0.00 72 1016.3
20200530155836 30 224 3.2 9.7 0.00 0.00 0.00 75 1016.4
20200530155336 30 225 3.2 9.7 0.00 0.00 0.00 76 1016.5
20200530154845 30 226 3.2 9.7 0.00 0.00 0.00 76 1016.6
20200530154806 30 226 3.2 9.7 0.00 0.00 0.00 76 1016.6
20200530154236 30 175 4.8 16.1 0.00 0.00 0.00 76 1016.6
20200530153736 30 183 4.8 16.1 0.00 0.00 0.00 74 1016.6
20200530153206 30 208 3.2 9.7 0.00 0.00 0.00 75 1016.6
20200530152636 30 204 3.2 11.3 0.00 0.00 0.00 77 1016.6
20200530152136 30 198 3.2 11.3 0.00 0.00 0.00 78 1016.6
20200530151636 30 218 4.8 11.3 0.00 0.00 0.00 77 1016.7
20200530151136 29 223 4.8 12.9 0.00 0.00 0.00 79 1016.6
20200530150636 30 222 4.8 12.9 0.00 0.00 0.00 78 1016.6
20200530150107 30 196 4.8 9.7 0.00 0.00 0.00 78 1016.6
20200530145536 30 196 6.4 14.5 0.00 0.00 0.00 80 1016.6
20200530145006 29 210 4.8 14.5 0.00 0.00 0.00 80 1016.7
20200530144436 29 221 4.8 14.5 0.00 0.00 0.00 81 1016.7
20200530143906 28 204 4.8 14.5 0.00 0.00 0.00 80 1016.5
20200530143336 28 166 4.8 12.9 0.00 0.00 0.00 83 1016.5
20200530142859 28 158 4.8 16.1 0.00 0.00 0.00 83 1016.6
20200530142806 28 158 4.8 16.1 0.00 0.00 0.00 83 1016.6
20200530142359 28 188 6.4 16.1 0.00 0.00 0.00 83 1016.6
20200530142306 28 188 6.4 16.1 0.00 0.00 0.00 83 1016.6
20200530142157 27 174 6.4 17.7 0.00 0.00 0.00 85 1016.7
20200530141736 27 216 6.4 16.1 0.00 0.00 0.00 83 1016.7
20200530141236 27 214 8.0 17.7 0.00 0.00 0.00 84 1016.7
20200530140801 27 196 6.4 17.7 0.00 0.00 0.00 83 1016.6
20200530140706 27 196 6.4 17.7 0.00 0.00 0.00 83 1016.6
20200530140219 27 156 4.8 16.1 0.00 0.00 0.00 85 1016.6
20200530140136 27 156 4.8 16.1 0.00 0.00 0.00 85 1016.6
20200530135606 27 161 6.4 16.1 0.00 0.00 0.00 86 1016.7
20200530135137 27 181 6.4 17.7 0.00 0.00 0.00 86 1016.6
20200530135036 27 181 6.4 17.7 0.00 0.00 0.00 86 1016.6
20200530134833 27 174 6.4 17.7 0.00 0.00 0.00 85 1016.7
20200530134506 27 174 6.4 17.7 0.00 0.00 0.00 85 1016.7
20200530134006 27 172 6.4 17.7 0.00 0.00 0.00 85 1016.8
20200530133436 27 177 6.4 17.7 0.00 0.00 0.00 85 1016.7
20200530132936 27 189 6.4 16.1 0.00 0.00 0.00 85 1016.7
20200530132406 27 177 6.4 16.1 0.00 0.00 0.00 87 1016.7
20200530131836 26 173 4.8 16.1 0.00 0.00 0.00 87 1016.8
20200530131336 26 160 6.4 16.1 0.00 0.00 0.00 88 1016.8
20200530131109 26 161 6.4 16.1 0.00 0.00 0.00 87 1016.9
20200530130836 26 161 6.4 16.1 0.00 0.00 0.00 87 1016.9
20200530130306 26 176 4.8 16.1 0.00 0.00 0.00 88 1016.8
20200530125806 26 173 4.8 16.1 0.00 0.00 0.00 88 1016.9
20200530125236 26 161 6.4 16.1 0.00 0.00 0.00 88 1017.0
20200530124731 23 150 3.2 11.3 0.00 0.00 0.00 89 1016.8
20200530124706 25 164 6.4 16.1 0.00 0.00 0.00 88 1017.0
20200530124136 25 181 3.2 8.0 0.00 0.00 0.00 89 1016.9
20200530123606 25 174 3.2 11.3 0.00 0.00 0.00 89 1016.9
20200530123036 25 171 3.2 11.3 0.00 0.00 0.00 89 1016.9
20200530122712 24 163 3.2 8.0 0.00 0.00 0.00 90 1016.9
20200530122536 25 161 3.2 9.7 0.00 0.00 0.00 89 1016.9
20200530122036 24 163 3.2 8.0 0.00 0.00 0.00 90 1016.9
20200530121506 24 160 6.4 16.1 0.00 0.00 0.00 89 1016.9
20200530121006 24 156 6.4 16.1 0.00 0.00 0.00 90 1017.0
20200530120436 23 151 4.8 11.3 0.00 0.00 0.00 89 1016.8
20200530115936 23 150 3.2 11.3 0.00 0.00 0.00 89 1016.8
20200530115436 23 157 0.0 11.3 0.00 0.00 0.00 88 1016.8
20200530114906 23 0 0.0 0.0 0.00 0.00 0.00 88 1016.8
20200530114336 23 0 0.0 0.0 0.00 0.00 0.00 88 1016.8
20200530113841 22 0 0.0 0.0 0.00 0.00 0.00 88 1016.8
20200530113836 22 0 0.0 0.0 0.00 0.00 0.00 88 1016.8
20200530113306 22 0 0.0 0.0 0.00 0.00 0.00 88 1016.7
20200530112745 22 0 0.0 0.0 0.00 0.00 0.00 88 1016.7
20200530112736 22 0 0.0 0.0 0.00 0.00 0.00 88 1016.7
20200530112206 22 0 0.0 0.0 0.00 0.00 0.00 89 1016.5
20200530111636 22 0 0.0 0.0 0.00 0.00 0.00 88 1016.6
20200530111141 22 0 0.0 0.0 0.00 0.00 0.00 88 1016.6
20200530111136 22 0 0.0 0.0 0.00 0.00 0.00 88 1016.6
20200530110606 22 0 0.0 0.0 0.00 0.00 0.00 89 1016.5
20200530110106 22 0 0.0 0.0 0.00 0.00 0.00 89 1016.7
20200530105536 22 0 0.0 0.0 0.00 0.00 0.00 89 1016.6
20200530105006 22 0 0.0 0.0 0.00 0.00 0.00 89 1016.5
20200530104510 22 0 0.0 0.0 0.00 0.00 0.00 89 1016.5
20200530104506 22 0 0.0 0.0 0.00 0.00 0.00 89 1016.5
20200530103937 22 0 0.0 0.0 0.00 0.00 0.00 89 1016.4
20200530103436 22 0 0.0 0.0 0.00 0.00 0.00 89 1016.3
20200530102906 22 0 0.0 0.0 0.00 0.00 0.00 89 1016.2
20200530102412 22 85 0.0 1.6 0.00 0.00 0.00 89 1016.1
20200530102406 22 85 0.0 1.6 0.00 0.00 0.00 89 1016.1
20200530101836 22 85 0.0 1.6 0.00 0.00 0.00 90 1016.1
20200530101336 22 0 0.0 0.0 0.00 0.00 0.00 90 1016.1
20200530100937 22 0 0.0 0.0 0.00 0.00 0.00 89 1016.2
20200530100806 22 0 0.0 0.0 0.00 0.00 0.00 90 1016.1
20200530100310 22 0 0.0 0.0 0.00 0.00 0.00 90 1016.2
20200530100306 22 0 0.0 0.0 0.00 0.00 0.00 90 1016.2
20200530095736 22 0 0.0 0.0 0.00 0.00 0.00 90 1016.2
20200530095236 22 0 0.0 0.0 0.00 0.00 0.00 90 1016.2
20200530094706 22 0 0.0 0.0 0.00 0.00 0.00 89 1016.2
20200530094255 22 0 0.0 0.0 0.00 0.00 0.00 90 1016.2
20200530094206 22 0 0.0 0.0 0.00 0.00 0.00 90 1016.2
20200530093636 22 0 0.0 0.0 0.00 0.00 0.00 90 1016.0
20200530093143 23 85 0.0 1.6 0.00 0.00 0.00 90 1015.9
20200530093136 23 85 0.0 1.6 0.00 0.00 0.00 90 1015.9
20200530092606 23 85 0.0 1.6 0.00 0.00 0.00 89 1015.9
20200530092036 23 85 0.0 3.2 0.00 0.00 0.00 89 1015.9
20200530090936 23 81 4.8 9.7 0.00 0.00 0.00 89 1015.9
20200530090436 23 79 3.2 9.7 0.00 0.00 0.00 89 1015.9
20200530090002 23 75 0.0 6.4 0.00 0.00 0.00 89 1016.0
20200530085936 23 75 0.0 6.4 0.00 0.00 0.00 89 1016.0
20200530085445 23 0 0.0 0.0 0.00 0.00 0.00 89 1015.9
20200530085406 23 0 0.0 0.0 0.00 0.00 0.00 89 1015.9
20200530084836 23 79 0.0 1.6 0.00 0.00 0.00 89 1016.0
20200530084426 23 77 1.6 3.2 0.00 0.00 0.00 89 1016.0
20200530084422 23 77 1.6 3.2 0.00 0.00 0.00 89 1016.0
20200530084306 23 77 1.6 3.2 0.00 0.00 0.00 89 1016.0
20200530083736 23 77 1.6 6.4 0.00 0.00 0.00 89 1016.0
20200530083328 23 78 3.2 6.4 0.00 0.00 0.00 89 1016.0
20200530083236 23 78 3.2 6.4 0.00 0.00 0.00 89 1016.0
20200530082842 23 80 3.2 8.0 0.00 0.00 0.00 89 1016.0
20200530082706 23 80 3.2 8.0 0.00 0.00 0.00 89 1016.0
20200530082206 23 81 3.2 8.0 0.00 0.00 0.00 89 1016.1